AirNav   BOSE ProFlight Aviation Headset
 
 1112 users online  

2NJ4 Six Flags Great Adventure Heliport
Jackson, New Jersey, USA

GOING TO JACKSON?


FAA INFORMATION EFFECTIVE 21 JUNE 2018

Location

FAA Identifier: 2NJ4
Lat/Long: 40-08-46.1570N / 074-26-04.5420W
40-08.769283N / 074-26.075700W
40.1461547 / -74.4345950
(estimated)
Elevation: 120 ft. / 37 m (estimated)
Variation: 12W (1985)
From city: 12 miles W of JACKSON, NJ
Time zone: UTC -4 (UTC -5 during Standard Time)
Zip code: 08514

Heliport Operations

Heliport use: Private use. Permission required prior to landing
Activation date: 07/1990
Control tower: no
ARTCC: NEW YORK CENTER
FSS: MILLVILLE FLIGHT SERVICE STATION
Attendance: UNATNDD
Segmented circle: no

Heliport Communications

WX AWOS-AV at N12 (13 nm E): 122.8 (732-363-6471)
WX AWOS-3PT at BLM (14 nm E): 121.625 (732-938-3330)
WX AWOS-3PT at MJX (15 nm SE): 119.875 (732-797-2542)
WX ASOS at TTN (19 nm NW): 126.775 (609-538-8690)

Nearby radio navigation aids

VOR radial/distance  VOR name  Freq  Var
RBVr151/4.4ROBBINSVILLE VORTAC113.8010W
GXUr054/11.1MC GUIRE VORTAC110.6012W
COLr243/16.0COLTS NECK VOR/DME115.4011W
CYNr010/19.7COYLE VORTAC113.4010W
ARDr117/22.6YARDLEY VOR/DME108.2010W
PNEr092/(26.7)NORTH PHILADELPHIA VOR112.0010W
SBJr162/29.7SOLBERG VOR/DME112.9010W
CRIr232/37.3CANARSIE VOR/DME112.3011W

 
NDB name  Hdg/Dist  Freq  Var  ID
LAKEHURST334/7.639611WNEL -. . .-..
CHATHAM193/35.725413WCAT -.-. .- -
BRIDGE237/35.741412WOGY --- --. -.--
AMBLER100/39.027512WING .. -. --.

Heliport Services

Runway Information

Helipad H1

Dimensions: 94 x 94 ft. / 29 x 29 m
Surface: turf, in fair condition
Traffic pattern: leftleft

Heliport Ownership and Management from official FAA records

Ownership: Privately-owned
Owner: SIX FLAGS GREAT ADVENTURE
P.O. BOX 120
JACKSON, NJ 08572
Phone 732-928-2000
Manager: EDWARD ZAKAR
RT 537
JACKSON, NJ 08527
Phone 732-928-2000
X2602.

Additional Remarks

A520H1 30' TREES 600' ALL QUADRANTS.

Instrument Procedures

There are no published instrument procedures at 2NJ4.

Some nearby airports with instrument procedures:

KNEL - Lakehurst Maxfield Field Airport (8 nm SE)
N87 - Trenton-Robbinsville Airport (9 nm NW)
KWRI - McGuire Field (Joint Base Mc Guire Dix Lakehurst) Airport (11 nm SW)
3N6 - Old Bridge Airport (12 nm N)
N12 - Lakewood Airport (13 nm E)
KBLM - Monmouth Executive Airport (14 nm E)
KMJX - Ocean County Airport (15 nm SE)
39N - Princeton Airport (18 nm NW)
KTTN - Trenton Mercer Airport (19 nm NW)
 
Loc | Ops | Rwys | IFR | FBO | Links
Com | Nav | Svcs | Stats | Notes

AirNav Hotels Sweepstakes
 
Area around 2NJ4 (Six Flags Great Adventure Heliport)
 
Road maps at: MapQuest Bing Google
 
Aerial photo
No photo
 
Sectional chart

 
Airport distance calculator
Flying to Six Flags Great Adventure Heliport? Find the distance to fly.

From to 2NJ4

Sunrise and sunset
Times for 23-Jun-2018
 Local
(UTC-4)
 Zulu
(UTC)
Morning civil twilight04:5708:57
Sunrise05:3009:30
Sunset20:3000:30
Evening civil twilight21:0301:03

Current date and time
Zulu (UTC)  23-Jun-2018 17:13:02
Local (UTC-4)  23-Jun-2018 13:13:02
 
METAR
KNEL 
9nm SE 
222255Z 12005KT 7SM OVC020 20/16 A2991 RMK AO2A SLPNO WND DATA ESTMD ALSTG ESTMD T01990160 $
KWRI 
10nm SW 
231656Z AUTO 04006KT 9SM OVC004 19/18 A2983 RMK AO2 CIG 003 RWY18 SLP101 T01930183
KBLM 
15nm E 
AWOS-3 121.625 732-938-3330
231656Z AUTO 06009KT 3SM BR OVC003 18/17 A2986 RMK AO2 SLP116 T01780172
KMJX 
15nm SE 
AWOS-3 119.875 732-244-4450
231656Z AUTO 05006KT 10SM OVC004 19/18 A2985 RMK AO2 SLP115 T01890183
KTTN 
19nm NW 
ASOS 133.70 609-538-8690
231653Z 08006KT 6SM BR OVC006 18/17 A2986 RMK AO2 SLP103 T01830172
TAF
KWRI 
10nm SW 
231540Z 2315/2416 05009KT 6000 BR OVC004 QNH2982INS BECMG 2317/2318 05009KT 8000 -SHRA SCT007 OVC010 QNH2981INS BECMG 2320/2321 16009KT 9000 -SHRA OVC025 QNH2974INS WND VRB06KT AFT 2400 TEMPO 2322/2402 25012G20KT 4800 TSRA OVC015CB BECMG 2408/2409 VRB06KT 6000 BR BKN005 QNH2979INS BECMG 2413/2414 27010G15KT 9999 NSW FEW015 SCT050 QNH2982INS TX27/2321Z TN19/2315Z
KTTN 
19nm NW 
231627Z 2316/2412 08006KT 4SM BR VCSH OVC006 FM231900 09006KT 6SM BR VCSH OVC012 FM232000 09005KT P6SM VCTS OVC015CB FM232100 12005KT P6SM VCTS BKN025CB FM240100 24005KT 6SM -SHRA BKN035 FM240300 27005KT P6SM BKN060 PROB30 2403/2406 5SM -SHRA FM240800 VRB03KT P6SM BKN020
NOTAMs
Click for the latest NOTAMs
NOTAMs are issued by the DoD/FAA and will open in a separate window not controlled by AirNav.

 

 
 

Would you like to see your business listed on this page?

 If your business provides an interesting product or service to pilots, flight crews, aircraft, or users of the Six Flags Great Adventure Heliport, you should consider listing it here.  To start the listing process, click on the button below
 
Add a business
 

Other Pages about Six Flags Great Adventure Heliport

Update a link
 
Copyright © AirNav, LLC. All rights reserved. Privacy Policy  Contact